Lid_Strength_Index
2 5 5 6 9 11 12 11 10 9 9 6 6 7 7 7 9 11 2 0 -0 -0 -1 -1 -1 -2 -1 -2 -2 -2 -2 -2 -2 -2 -2 -2 -2 -2 -2 -2 -2 -2 -2 -2 -2 -2 -2 -2 -2
4 5 5 8 12 13 13 11 11 9 7 6 6 6 7 9 5 4 3 -0 -1 -1 -1 -1 -1 -2 -1 -2 -2 -2 -2 -2 -2 -2 -2 -2 -2 -2 -2 -2 -2 -2 -2 -2 -2 -2 -2 -2 -2
4 5 6 10 14 14 13 11 11 7 6 6 7 5 6 7 4 3 1 -0 -1 -1 -1 -1 -1 -2 -2 -2 -2 -2 -2 -2 -2 -2 -2 -2 -2 -2 -2 -2 -2 -2 -2 -2 -2 -2 -2 -2 -2
6 6 7 10 12 10 12 10 8 8 7 6 6 8 5 2 3 2 0 -0 -0 -1 -1 -1 -1 -2 -2 -2 -2 -2 -2 -2 -2 -2 -2 -2 -2 -2 -2 -2 -2 -2 -2 -2 -2 -2 -2 -2 -2
6 7 10 11 11 11 11 9 9 9 9 7 6 8 7 3 1 1 0 -0 0 -0 -1 -1 -1 -1 -2 -2 -2 -2 -2 -2 -2 -2 -2 -2 -2 -2 -2 -2 -2 -2 -2 -2 -2 -2 -2 -2 -2
7 8 12 13 12 11 10 9 9 10 8 7 7 7 7 2 2 1 -0 -0 -0 -0 -1 -1 0 -1 -1 -2 -2 -2 -2 -2 -2 -2 -2 -2 -2 -2 -2 -2 -2 -2 -2 -2 -2 -2 -2 -2 -2
8 10 12 13 12 12 10 10 10 10 8 7 5 8 6 4 1 0 0 -0 -0 -1 -1 -1 -1 -1 -0 -1 -1 -2 -2 -2 -2 -2 -2 -2 -2 -2 -2 -2 -2 -2 -2 -2 -2 -2 -2 -2 -2
9 10 13 12 12 12 10 10 10 9 8 5 5 8 8 4 1 1 0 1 -0 -0 -1 -0 -1 -1 -1 -1 0 -1 -2 -2 -2 -2 -1 -1 -1 -2 -2 -1 -2 -2 -2 -2 -2 -2 -2 -2 -2
7 11 13 12 12 11 10 11 10 8 7 6 5 6 4 2 1 2 2 1 1 1 -0 -0 -0 -0 -0 -1 0 0 -0 -0 -0 -0 1 0 -1 -1 -1 -1 -2 -2 -2 -2 -2 -1 -2 -2 -2
8 11 11 9 10 11 10 11 10 8 7 7 6 4 3 2 2 3 3 3 2 2 1 -0 -0 0 0 0 -0 -1 -1 -1 -0 -1 -1 -1 -1 -1 -1 -0 -0 -1 -1 -2 -2 -1 -0 0 -1
9 11 10 9 9 10 10 11 10 9 9 7 7 6 4 4 3 3 3 3 3 2 1 -0 0 0 0 0 0 -0 -0 -0 -0 -0 -1 -1 -1 -1 -1 -1 -0 -0 1 0 0 0 0 0 0
10 8 8 8 7 10 11 10 10 9 8 7 6 4 4 4 4 4 3 3 3 2 2 -0 0 0 0 0 0 0 -0 0 -0 -0 -0 -0 -0 -0 -0 -0 0 1 1 1 0 -0 0 1 0
9 8 7 6 7 8 11 11 11 10 8 7 7 4 4 4 4 3 3 3 2 3 2 0 0 1 1 1 1 0 0 0 -0 0 -0 -0 0 0 0 0 0 1 1 1 0 0 0 1 1
8 8 8 7 7 7 9 12 12 11 8 6 6 5 4 4 4 3 3 3 3 2 2 1 1 0 1 1 1 1 0 -0 0 0 0 0 -0 0 0 0 1 1 1 1 0 0 0 1 1
7 10 9 9 8 9 10 12 13 11 7 8 6 5 5 4 3 3 3 3 3 2 2 2 1 1 1 1 1 1 0 0 0 0 0 0 0 0 0 0 1 1 1 1 1 1 1 1 1
10 10 13 9 8 8 11 13 11 11 8 8 7 6 5 5 4 3 3 2 2 2 2 2 1 1 1 1 1 1 0 0 0 0 0 0 -0 -0 0 0 1 1 1 1 1 1 1 1 2
11 15 14 12 9 10 12 13 11 11 9 9 8 6 6 5 5 4 3 2 2 2 2 2 2 1 1 1 0 0 0 0 -0 -0 0 0 0 -0 -0 1 0 1 1 1 1 1 1 2 2
15 14 14 14 10 10 11 11 9 10 11 10 10 8 6 6 5 3 3 3 2 2 2 2 2 2 1 1 1 1 1 1 1 0 0 0 -0 -0 0 0 1 1 1 1 1 2 2 2 2
11 13 13 11 10 11 11 11 10 10 11 12 12 10 8 6 4 4 3 3 3 2 2 2 2 2 2 2 2 2 2 1 1 1 0 -0 -0 -0 -0 0 1 1 1 1 1 2 3 3 2
12 13 14 11 9 11 11 12 10 10 11 10 10 11 11 9 7 5 4 3 3 3 2 2 2 2 2 2 2 1 2 1 1 1 1 1 0 -0 -0 0 1 1 1 1 1 2 2 2 2
12 14 13 13 11 11 13 13 12 11 11 10 10 9 9 10 9 8 5 4 3 3 3 2 2 2 1 1 2 2 2 2 2 2 1 2 1 1 0 0 1 1 1 1 1 2 2 2 2
15 10 11 12 13 17 11 18 14 12 11 10 9 10 9 9 9 9 9 6 3 2 2 2 2 2 1 1 1 2 2 2 2 1 1 1 1 2 1 1 1 1 1 1 1 2 2 2 2
13 10 11 12 13 14 14 17 14 12 12 11 9 9 8 8 8 8 8 8 5 3 2 1 1 1 1 1 1 1 2 1 1 1 1 1 1 1 1 2 2 2 2 1 1 2 2 2 2
9 11 12 12 14 19 14 15 15 13 13 10 9 8 8 8 8 7 7 7 7 5 2 1 1 2 1 1 1 1 2 1 2 2 2 1 1 1 1 1 1 1 1 2 2 1 2 2 2
11 13 19 20 20 20 14 16 14 13 12 10 9 8 7 8 8 7 8 8 8 7 4 2 2 2 2 1 1 1 1 1 1 1 2 2 2 2 2 2 1 1 2 2 1 2 2 2 2
13 13 18 22 22 18 14 18 14 11 9 11 10 8 9 10 9 9 9 9 8 8 6 4 2 2 2 2 2 1 1 1 1 1 2 2 2 2 2 2 1 1 2 2 2 2 2 3 3
13 15 11 16 21 19 16 14 13 12 12 11 9 12 11 10 10 11 10 9 9 9 8 5 3 2 2 2 2 2 1 1 2 2 2 2 2 2 2 2 2 2 2 2 2 2 2 2 2
11 10 16 16 21 22 18 16 15 14 11 11 11 10 9 10 11 11 11 11 10 9 9 7 4 4 3 3 2 2 1 1 1 2 2 2 2 2 2 2 2 2 2 1 1 1 1 1 1
12 14 13 13 15 19 20 16 13 11 11 10 9 8 8 8 8 9 11 11 11 11 10 8 6 6 5 4 3 2 2 2 2 2 2 2 2 2 2 2 1 1 1 1 1 1 1 1 1
11 15 13 17 18 16 15 15 13 10 9 9 9 8 7 8 9 11 12 12 12 12 11 10 8 7 6 5 5 4 4 4 3 3 3 3 2 2 2 1 1 1 1 1 1 1 1 1 1